Location: Lafig�re
(44.4503°N, 4.0357°E)
Time: 05:55:08
(UTC+00:00)

Vanguard 2 - Pass Details

Date: 26 January 2021
Orbit: 552 x 2938 km, 32.9° (Epoch: 01 March)

Event Time Altitude Azimuth Distance (km) Brightness Sun altitude
Rises 17:16:20 0° 243° (WSW) 2,709 12.8 -6.0°
Reaches altitude 10° 17:18:57 10° 223° (SW) 1,848 10.7 -6.4°
Maximum altitude 17:21:51 19° 177° (S) 1,471 9.2 -6.9°
Drops below altitude 10° 17:25:12 10° 132° (SE) 2,181 9.6 -7.5°
Sets 17:28:39 0° 115° (ESE) 3,411 10.4 -8.1°
Enters shadow 17:28:51 - 115° (ESE) 3,485 10.5 -8.1°
